Location: Castro Valley
(37.6940°N, 122.0850°W)
Time: 02:05:40
(UTC-08:00)

Amateur Radio Satellites - All Passes

Search period start: 18 January 2017 01:35
Search period end: 19 January 2017 01:35
Location: Castro Valley, 37.6940°N, 122.0850°W

Satellite Date Start Highest point End Downlink Frequencies (MHz)
Time Altitude Azimuth
BEESAT 2 18 Jan 01:39:35 01:42:41 21° 50° (NE) 01:45:45 435.950
MOZHAYETS 4 18 Jan 01:48:26 01:51:03 15° 65° (ENE) 01:53:39
AIST 1 18 Jan 01:51:02 01:55:10 50° 267° (W) 01:59:16
Cosmos 2504 18 Jan 01:51:40 01:58:43 44° 76° (ENE) 02:05:28 435.465 / 435.565
PCSat 18 Jan 02:00:32 02:05:35 40° 303° (WNW) 02:10:41 145.827
AUBIESAT-1 18 Jan 02:07:23 02:09:39 14° 62° (ENE) 02:11:50 437.475
TISAT 1 18 Jan 02:08:37 02:10:59 15° 267° (W) 02:13:23 437.305
ITUPSAT 1 18 Jan 02:27:05 02:31:46 58° 259° (W) 02:36:28 437.325
BEESAT 3 18 Jan 02:38:03 02:41:46 37° 245° (WSW) 02:45:27 437.485
CUSAT 1 18 Jan 02:39:18 02:43:02 23° 83° (E) 02:47:35 437.405
Gurwin Techsat 1B 18 Jan 02:40:28 02:45:36 51° 288° (WNW) 02:50:43 435.225
YUBILEINY 18 Jan 02:43:04 02:51:21 48° 272° (W) 02:59:35 435.215
KKS-1 18 Jan 02:47:19 02:50:38 21° 67° (ENE) 02:53:57 437.445
PHONESAT 2.4 18 Jan 02:48:31 02:50:41 36° 155° (SSE) 02:52:51 2401.200-2431.200
Oscar 19 18 Jan 02:49:18 02:53:14 22° 294° (WNW) 02:57:09 437.125/150
M-CUBED/EXP-1 PRIME 18 Jan 03:00:08 03:04:36 69° 70° (ENE) 03:08:49 437.505
AO-7 18 Jan 03:02:40 03:10:17 37° 99° (E) 03:17:48 29.400- 29.500
BEESAT 18 Jan 03:04:44 03:08:29 23° 265° (W) 03:12:16 436.000
SWISSCUBE 18 Jan 03:06:25 03:09:53 20° 266° (W) 03:13:22 437.505
BEESAT 2 18 Jan 03:16:52 03:20:31 33° 246° (WSW) 03:24:10 435.950
MOZHAYETS 4 18 Jan 03:23:21 03:27:45 49° 261° (W) 03:32:13
RS-15 18 Jan 03:24:28 03:33:23 22° 337° (NNW) 03:42:29 29.354- 29.394
ITAMSAT 1 18 Jan 03:25:04 03:30:18 85° 103° (ESE) 03:35:32 435.822/435.867
Cosmos 2491 18 Jan 03:28:14 03:36:25 44° 284° (WNW) 03:44:39 435.465 / 435.565
AUBIESAT-1 18 Jan 03:39:23 03:43:41 51° 255° (WSW) 03:47:45 437.475
Cosmos 2504 18 Jan 03:45:36 03:51:42 29° 275° (W) 03:57:39 435.465 / 435.565
STARS 18 Jan 03:47:10 03:51:16 41° 72° (ENE) 03:55:24 437.465
CUBESAT XI-V 18 Jan 04:01:31 04:06:06 59° 74° (ENE) 04:10:45 437.345
CUSAT 1 18 Jan 04:20:08 04:24:31 36° 289° (WNW) 04:30:07 437.405
PHONESAT 2.4 18 Jan 04:22:35 04:24:49 45° 351° (N) 04:27:03 2401.200-2431.200
KKS-1 18 Jan 04:22:57 04:26:58 33° 262° (W) 04:31:00 437.445
DANDE 18 Jan 04:44:41 04:48:04 69° 281° (W) 04:52:38 436.750
AIST 2 18 Jan 04:50:33 04:54:37 43° 55° (NE) 04:58:38 435.215
AO-7 18 Jan 04:55:13 05:03:04 47° 296° (WNW) 05:10:53 29.400- 29.500
ITAMSAT 1 18 Jan 05:07:20 05:09:01 12° 300° (WNW) 05:10:42 435.822/435.867
BRITE-PL 18 Jan 05:17:04 05:22:03 83° 282° (WNW) 05:26:35 437.365/2234.400
ISS 18 Jan 05:17:58 05:20:59 34° 33° (NNE) 05:23:59 145.825
NOAA 15 18 Jan 05:18:19 05:21:35 16° 92° (E) 05:24:49 137.62
STARS 18 Jan 05:25:08 05:27:46 16° 266° (W) 05:30:25 437.465
HORYU 2 18 Jan 05:25:11 05:29:32 51° 101° (E) 05:33:52 437.375
GOMX 1 18 Jan 05:34:35 05:38:58 55° 99° (E) 05:43:06 467.674
GONETS M04 18 Jan 05:34:42 05:39:51 16° 63° (ENE) 05:44:58
CUBESAT XI-V 18 Jan 05:41:55 05:43:50 12° 269° (W) 05:45:46 437.345
RS-15 18 Jan 05:44:26 05:52:37 19° 14° (NNE) 06:00:42 29.354- 29.394
O/OREOS (USA 219) 18 Jan 05:49:50 05:53:01 19° 101° (E) 05:56:13 437.305
CUTE-I 18 Jan 05:56:02 06:00:58 37° 98° (E) 06:05:52 437.470
PHONESAT 2.4 18 Jan 05:56:57 05:59:10 43° 8° (N) 06:01:24 2401.200-2431.200
LilacSat-2 18 Jan 05:57:05 06:00:46 41° 99° (E) 06:04:26 437.200
Cosmos 2499 18 Jan 06:12:16 06:18:28 30° 73° (ENE) 06:24:31 435.465 / 435.565
STRAND 1 18 Jan 06:21:11 06:26:06 52° 72° (ENE) 06:31:03 437.568
NOAA 18 18 Jan 06:21:48 06:26:44 34° 98° (E) 06:31:38 137.9125
DOVE 4 18 Jan 06:26:44 06:30:58 79° 102° (ESE) 06:35:06 437.250
AIST 2 18 Jan 06:30:06 06:32:44 16° 251° (WSW) 06:35:21 435.215
CINEMA 3 18 Jan 06:37:27 06:40:37 21° 95° (E) 06:43:49 145.822/145.860
Cubesat XI-IV 18 Jan 06:38:05 06:43:27 88° 284° (WNW) 06:48:47 437.490
ISS 18 Jan 06:54:46 06:57:19 21° 229° (SW) 06:59:52 145.825
NOAA 15 18 Jan 06:56:28 07:01:41 56° 287° (WNW) 07:06:50 137.62
HORYU 2 18 Jan 07:03:17 07:05:37 14° 296° (WNW) 07:07:57 437.375
CUTE 1.7 + AOD 2 18 Jan 07:04:43 07:08:12 24° 95° (E) 07:11:40 437.475
GOMX 1 18 Jan 07:14:42 07:16:29 12° 297° (WNW) 07:18:14 467.674
HO-68 18 Jan 07:15:00 07:21:40 39° 98° (E) 07:28:15 435.675
O/OREOS (USA 219) 18 Jan 07:28:04 07:32:09 34° 297° (WNW) 07:36:14 437.305
GONETS M04 18 Jan 07:29:05 07:37:58 86° 84° (E) 07:46:50
PHONESAT 2.4 18 Jan 07:31:07 07:33:20 41° 203° (SSW) 07:35:33 2401.200-2431.200
CANX-2 18 Jan 07:32:48 07:37:04 61° 100° (E) 07:41:18 2200.000
LilacSat-2 18 Jan 07:32:54 07:34:40 13° 293° (WNW) 07:36:27 437.200
CUTE-I 18 Jan 07:36:27 07:40:47 26° 293° (WNW) 07:45:08 437.470
CUBEBUG 2 18 Jan 07:48:38 07:52:29 31° 97° (E) 07:56:25 437.445
SEEDS 18 Jan 07:49:16 07:53:26 52° 100° (E) 07:57:34 437.485
RS-15 18 Jan 07:57:57 08:09:40 45° 46° (NE) 08:20:56 29.354- 29.394
COMPASS 1 18 Jan 07:59:35 08:03:38 43° 99° (E) 08:07:37 437.405
STRAND 1 18 Jan 08:02:25 08:05:34 16° 268° (W) 08:08:42 437.568
NOAA 18 18 Jan 08:02:36 08:07:15 29° 293° (WNW) 08:11:52 137.9125
Cosmos 2499 18 Jan 08:05:05 08:11:39 41° 271° (W) 08:18:08 435.465 / 435.565
SO-50 18 Jan 08:11:12 08:15:53 65° 117° (ESE) 08:20:31 436.795
AAUSAT CUBESAT 2 18 Jan 08:13:26 08:17:30 48° 99° (E) 08:21:31 437.432
CINEMA 3 18 Jan 08:14:10 08:17:45 28° 289° (WNW) 08:21:23 145.822/145.860
Cubesat XI-IV 18 Jan 08:21:24 08:22:41 11° 301° (WNW) 08:23:59 437.490
UWE-3 18 Jan 08:22:05 08:26:17 46° 99° (E) 08:30:35 435.000/436.395/437.385
FUNcube-1 18 Jan 08:25:14 08:28:58 27° 96° (E) 08:32:44 145.935
UNISAT 6 18 Jan 08:27:29 08:29:58 15° 66° (ENE) 08:32:27 437.425
CUTE 1.7 + AOD 2 18 Jan 08:40:23 08:43:57 26° 290° (WNW) 08:47:31 437.475
TIGRISAT 18 Jan 08:40:55 08:44:01 20° 68° (ENE) 08:47:06 435.000
ZACube-1 18 Jan 08:46:26 08:50:42 52° 100° (E) 08:55:04 437.345
PRISM 18 Jan 08:46:42 08:50:52 84° 257° (WSW) 08:55:04 437.425
ANTELSAT 18 Jan 08:54:47 08:58:30 30° 71° (ENE) 09:02:13 437.575/2403.000
HO-68 18 Jan 09:02:48 09:09:15 37° 295° (WNW) 09:15:41 435.675
PCSat 18 Jan 09:07:47 09:11:12 17° 47° (NE) 09:14:38 145.827
CANX-2 18 Jan 09:11:03 09:12:22 11° 296° (WNW) 09:13:40 2200.000
HUMSAT D 18 Jan 09:20:03 09:23:00 18° 94° (E) 09:25:56 437.325/437.525
CUBEBUG 2 18 Jan 09:25:40 09:28:54 21° 291° (WNW) 09:32:13 437.445
JAS-2 18 Jan 09:26:15 09:30:24 24° 64° (ENE) 09:34:49 435.910
SEEDS 18 Jan 09:26:47 09:28:38 13° 295° (WNW) 09:30:29 437.485
Oscar 11 18 Jan 09:27:31 09:31:50 62° 285° (WNW) 09:36:07 145.826/435.025
GONETS M04 18 Jan 09:28:22 09:33:32 17° 282° (WNW) 09:38:44
COMPASS 1 18 Jan 09:36:28 09:38:46 14° 294° (WNW) 09:41:03 437.405
AAUSAT CUBESAT 2 18 Jan 09:50:33 09:52:31 13° 294° (WNW) 09:54:28 437.432
DELFI C3 18 Jan 09:51:52 09:55:54 84° 101° (ESE) 09:59:52 145.870
SO-50 18 Jan 09:53:47 09:56:46 16° 315° (NW) 09:59:43 436.795
UWE-3 18 Jan 09:59:56 10:02:22 15° 293° (WNW) 10:04:50 435.000/436.395/437.385
FUNcube-1 18 Jan 10:01:32 10:05:04 24° 290° (WNW) 10:08:38 145.935
UNISAT 6 18 Jan 10:02:16 10:06:19 41° 261° (W) 10:10:22 437.425
RS-15 18 Jan 10:10:41 10:22:32 58° 249° (WSW) 10:33:55 29.354- 29.394
TIGRISAT 18 Jan 10:16:43 10:20:29 31° 263° (W) 10:24:16 435.000
QB50P1 18 Jan 10:23:30 10:27:04 27° 70° (ENE) 10:30:38 145.935-145.965
ZACube-1 18 Jan 10:24:25 10:26:32 14° 294° (WNW) 10:28:42 437.345
BY70-1 18 Jan 10:25:44 10:28:17 20° 95° (E) 10:30:42 436.1900
POLYITAN 1 18 Jan 10:26:47 10:30:26 30° 71° (ENE) 10:34:06 437.675
QB50P2 18 Jan 10:27:48 10:31:35 33° 71° (ENE) 10:35:21 145.880/145.840
ANTELSAT 18 Jan 10:32:05 10:35:14 20° 265° (W) 10:38:22 437.575/2403.000
CUBEBUG 1 18 Jan 10:48:41 10:50:14 12° 91° (E) 10:51:46 437.445
POPSAT HIP 1 18 Jan 10:49:34 10:53:39 54° 74° (ENE) 10:57:45 437.405
PCSat 18 Jan 10:49:46 10:55:12 75° 245° (WSW) 11:00:35 145.827
HUMSAT D 18 Jan 10:54:47 10:58:39 34° 288° (WNW) 11:02:32 437.325/437.525
DUCHIFAT 1 18 Jan 11:03:18 11:07:27 69° 75° (ENE) 11:11:36 145.980
NANOSAT C BR1 18 Jan 11:07:33 11:11:44 86° 73° (ENE) 11:15:56 145.865
ESTCUBE 1 18 Jan 11:08:45 11:12:59 37° 98° (E) 11:17:10 437.505/2401.250
JAS-2 18 Jan 11:10:23 11:15:13 38° 263° (W) 11:20:26 435.910
VELOX 1 18 Jan 11:30:44 11:34:10 22° 95° (E) 11:37:35 145.980
Cosmos 2491 18 Jan 11:45:44 11:50:43 16° 63° (ENE) 11:55:41 435.465 / 435.565
BUGSAT 1 18 Jan 11:47:28 11:51:33 79° 75° (ENE) 11:55:36 437.445
BY70-1 18 Jan 11:56:07 11:58:30 18° 291° (WNW) 12:00:46 436.1900
QB50P1 18 Jan 11:59:33 12:02:47 21° 265° (W) 12:06:02 145.935-145.965
POLYITAN 1 18 Jan 12:03:11 12:06:14 19° 265° (W) 12:09:18 437.675
QB50P2 18 Jan 12:04:34 12:07:25 18° 266° (W) 12:10:17 145.880/145.840
DX 1 18 Jan 12:10:16 12:14:01 28° 97° (E) 12:17:45 434.975-435.025
UKube-1 18 Jan 12:14:15 12:17:40 22° 96° (E) 12:21:02 .
SPROUT 18 Jan 12:16:06 12:20:17 55° 100° (E) 12:24:26 437.525
Gurwin Techsat 1B 18 Jan 12:20:57 12:25:11 25° 66° (ENE) 12:29:27 435.225
CUBEBUG 1 18 Jan 12:22:35 12:26:48 53° 286° (WNW) 12:30:59 437.445
Oscar 19 18 Jan 12:24:08 12:29:08 50° 72° (ENE) 12:34:09 437.125/150
POPSAT HIP 1 18 Jan 12:28:48 12:29:43 11° 269° (W) 12:30:40 437.405
AISAT 18 Jan 12:32:49 12:37:11 66° 285° (WNW) 12:41:29 437.250
50 SAT 18 Jan 12:45:42 12:49:10 50° 285° (WNW) 12:52:35 437.505
ESTCUBE 1 18 Jan 12:46:17 12:49:29 19° 293° (WNW) 12:52:39 437.505/2401.250
ITAMSAT 1 18 Jan 13:05:24 13:07:33 13° 61° (ENE) 13:09:42 435.822/435.867
VELOX 1 18 Jan 13:06:48 13:10:36 29° 290° (WNW) 13:14:23 145.980
CUSAT 1 18 Jan 13:12:40 13:19:01 25° 67° (ENE) 13:25:05 437.405
SWISSCUBE 18 Jan 13:32:10 13:33:19 11° 91° (E) 13:34:28 437.505
Cosmos 2491 18 Jan 13:40:02 13:48:53 85° 84° (E) 13:57:43 435.465 / 435.565
DANDE 18 Jan 13:40:52 13:45:14 16° 65° (ENE) 13:49:47 436.750
YUBILEINY 18 Jan 13:44:52 13:52:58 43° 87° (E) 14:01:05 435.215
DX 1 18 Jan 13:46:39 13:50:03 23° 292° (WNW) 13:53:25 434.975-435.025
UKube-1 18 Jan 13:49:58 13:53:39 28° 290° (WNW) 13:57:17 .
TISAT 1 18 Jan 13:51:58 13:56:09 86° 282° (WNW) 14:00:19 437.305
SPROUT 18 Jan 13:54:02 13:55:42 12° 295° (WNW) 13:57:21 437.525
AO-85 18 Jan 13:54:27 13:59:06 49° 116° (ESE) 14:03:25 145.980
AO-7 18 Jan 13:59:27 14:07:13 45° 63° (ENE) 14:15:00 29.400- 29.500
Gurwin Techsat 1B 18 Jan 13:59:59 14:04:53 38° 262° (W) 14:09:50 435.225
Oscar 19 18 Jan 14:05:14 14:08:41 18° 267° (W) 14:12:10 437.125/150
AIST 1 18 Jan 14:17:41 14:22:04 81° 277° (W) 14:26:27
Cosmos 2504 18 Jan 14:26:20 14:34:24 43° 88° (E) 14:42:06 435.465 / 435.565
ITUPSAT 1 18 Jan 14:29:22 14:33:55 41° 99° (E) 14:38:26 437.325
ITAMSAT 1 18 Jan 14:41:10 14:46:19 77° 257° (WSW) 14:51:31 435.822/435.867
BRITE-PL 18 Jan 14:50:01 14:52:15 12° 61° (ENE) 14:54:28 437.365/2234.400
JUGNU 18 Jan 14:53:12 14:54:30 11° 170° (S) 14:55:49 437.505
CUSAT 1 18 Jan 14:53:37 15:01:34 68° 265° (W) 15:08:54 437.405
BEESAT 18 Jan 15:05:19 15:10:08 81° 283° (WNW) 15:14:54 436.000
SWISSCUBE 18 Jan 15:06:45 15:11:32 69° 286° (WNW) 15:16:17 437.505
MOZHAYETS 4 18 Jan 15:20:00 15:24:26 43° 99° (E) 15:28:50
DANDE 18 Jan 15:21:04 15:28:50 78° 81° (E) 15:37:14 436.750
AO-85 18 Jan 15:36:23 15:39:42 19° 311° (NW) 15:42:52 145.980
Cosmos 2491 18 Jan 15:39:19 15:44:30 17° 281° (WNW) 15:49:43 435.465 / 435.565
YUBILEINY 18 Jan 15:41:40 15:49:43 39° 286° (WNW) 15:57:52 435.215
AO-7 18 Jan 15:52:17 15:59:57 40° 261° (W) 16:07:41 29.400- 29.500
O/OREOS (USA 219) 18 Jan 16:00:31 16:04:25 28° 62° (ENE) 16:08:19 437.305
CUBESAT XI-V 18 Jan 16:01:04 16:04:07 17° 93° (E) 16:07:10 437.345
ITUPSAT 1 18 Jan 16:07:58 16:11:25 20° 294° (WNW) 16:14:52 437.325
KKS-1 18 Jan 16:15:07 16:19:27 51° 101° (E) 16:23:45 437.445
M-CUBED/EXP-1 PRIME 18 Jan 16:15:34 16:18:55 62° 106° (ESE) 16:22:08 437.505
Cosmos 2504 18 Jan 16:19:46 16:27:45 39° 285° (WNW) 16:35:23 435.465 / 435.565
Cubesat XI-IV 18 Jan 16:21:05 16:24:05 15° 62° (ENE) 16:27:05 437.490
HORYU 2 18 Jan 16:21:20 16:25:22 37° 71° (ENE) 16:29:26 437.375
BRITE-PL 18 Jan 16:24:11 16:29:51 89° 77° (ENE) 16:35:34 437.365/2234.400
BEESAT 3 18 Jan 16:25:51 16:29:37 52° 117° (ESE) 16:33:27 437.485
NOAA 15 18 Jan 16:36:19 16:40:23 23° 65° (ENE) 16:44:27 137.62
LilacSat-2 18 Jan 16:38:18 16:40:38 16° 68° (ENE) 16:42:59 437.200
GOMX 1 18 Jan 16:39:24 16:44:41 53° 73° (ENE) 16:49:47 467.674
CUSAT 1 18 Jan 16:39:43 16:41:57 11° 283° (WNW) 16:44:10 437.405
JUGNU 18 Jan 16:39:56 16:42:38 13° 181° (S) 16:45:21 437.505
SO-50 18 Jan 16:44:36 16:48:42 33° 52° (NE) 16:52:44 436.795
AUBIESAT-1 18 Jan 16:54:09 16:57:23 44° 291° (WNW) 17:00:31 437.475
MOZHAYETS 4 18 Jan 16:58:09 17:01:14 18° 294° (WNW) 17:04:18
DANDE 18 Jan 17:05:18 17:10:55 22° 275° (W) 17:16:47 436.750
BEESAT 2 18 Jan 17:05:57 17:09:49 62° 118° (ESE) 17:13:45 435.950
STARS 18 Jan 17:14:06 17:18:29 76° 284° (WNW) 17:22:50 437.465
CUTE-I 18 Jan 17:15:56 17:21:03 51° 72° (ENE) 17:26:11 437.470
DOVE 4 18 Jan 17:29:15 17:34:18 66° 76° (ENE) 17:39:05 437.250
CUBESAT XI-V 18 Jan 17:37:14 17:41:40 42° 288° (WNW) 17:46:03 437.345
CINEMA 3 18 Jan 17:37:55 17:40:44 17° 68° (ENE) 17:43:30 145.822/145.860
O/OREOS (USA 219) 18 Jan 17:40:02 17:43:40 24° 258° (WSW) 17:47:19 437.305
HO-68 18 Jan 17:42:34 17:48:09 25° 61° (ENE) 17:53:45 435.675
NOAA 18 18 Jan 17:46:04 17:51:26 55° 71° (ENE) 17:56:47 137.9125
KKS-1 18 Jan 17:53:17 17:55:32 14° 296° (WNW) 17:57:48 437.445
CUTE 1.7 + AOD 2 18 Jan 17:56:42 17:58:56 14° 66° (ENE) 18:01:10 437.475
Cubesat XI-IV 18 Jan 17:58:17 18:03:34 65° 258° (WSW) 18:08:51 437.490
HORYU 2 18 Jan 17:59:04 18:02:01 17° 266° (W) 18:04:59 437.375
BEESAT 3 18 Jan 18:05:24 18:07:32 14° 314° (NW) 18:09:41 437.485
SRMSAT 18 Jan 18:05:42 18:08:11 13° 175° (S) 18:10:41 437.500
BRITE-PL 18 Jan 18:07:21 18:08:55 11° 272° (W) 18:10:29 437.365/2234.400
LilacSat-2 18 Jan 18:11:20 18:14:39 30° 263° (W) 18:18:01 437.200
NOAA 15 18 Jan 18:14:53 18:19:50 42° 261° (W) 18:24:53 137.62
GOMX 1 18 Jan 18:19:16 18:22:56 18° 267° (W) 18:26:33 467.674
CANX-2 18 Jan 18:23:41 18:27:29 33° 72° (ENE) 18:31:19 2200.000
SO-50 18 Jan 18:25:24 18:28:57 23° 249° (WSW) 18:32:29 436.795
STRAND 1 18 Jan 18:34:17 18:38:06 21° 94° (E) 18:41:54 437.568
GONETS M04 18 Jan 18:34:40 18:40:17 19° 79° (E) 18:45:54
SEEDS 18 Jan 18:39:12 18:42:47 28° 71° (ENE) 18:46:25 437.485
CUBEBUG 2 18 Jan 18:45:43 18:48:46 20° 69° (ENE) 18:51:47 437.445
BEESAT 2 18 Jan 18:46:10 18:48:00 13° 315° (NW) 18:49:51 435.950
Cosmos 2499 18 Jan 18:46:11 18:53:13 30° 86° (E) 18:59:51 435.465 / 435.565
AIST 2 18 Jan 18:48:07 18:50:09 13° 108° (ESE) 18:52:11 435.215
COMPASS 1 18 Jan 18:48:43 18:52:03 23° 69° (ENE) 18:55:23 437.405
CUTE-I 18 Jan 18:57:48 19:01:21 18° 267° (W) 19:04:54 437.470
AAUSAT CUBESAT 2 18 Jan 19:01:57 19:05:21 25° 70° (ENE) 19:08:47 437.432
DOVE 4 18 Jan 19:10:10 19:12:16 12° 269° (W) 19:14:20 437.250
CINEMA 3 18 Jan 19:13:21 19:17:35 40° 261° (W) 19:21:41 145.822/145.860
UWE-3 18 Jan 19:17:42 19:21:14 28° 71° (ENE) 19:24:47 435.000/436.395/437.385
FUNcube-1 18 Jan 19:20:02 19:22:34 16° 67° (ENE) 19:25:08 145.935
HO-68 18 Jan 19:28:14 19:35:19 61° 258° (WSW) 19:42:27 435.675
NOAA 18 18 Jan 19:28:45 19:32:22 18° 267° (W) 19:36:00 137.9125
CUTE 1.7 + AOD 2 18 Jan 19:30:16 19:34:20 46° 261° (W) 19:38:27 437.475
ZACube-1 18 Jan 19:40:45 19:44:22 30° 71° (ENE) 19:47:59 437.345
SRMSAT 18 Jan 19:53:57 19:56:30 13° 185° (S) 19:59:02 437.500
CANX-2 18 Jan 20:00:26 20:03:23 18° 267° (W) 20:06:22 2200.000
STRAND 1 18 Jan 20:12:35 20:17:24 42° 289° (WNW) 20:22:13 437.568
SEEDS 18 Jan 20:15:12 20:18:26 21° 266° (W) 20:21:43 437.485
Oscar 11 18 Jan 20:19:54 20:24:12 77° 76° (ENE) 20:28:31 145.826/435.025
CUBEBUG 2 18 Jan 20:21:32 20:25:12 29° 263° (W) 20:28:50 437.445
COMPASS 1 18 Jan 20:23:58 20:27:27 25° 264° (W) 20:30:58 437.405
AIST 2 18 Jan 20:24:10 20:28:09 48° 304° (NW) 20:32:12 435.215
GONETS M04 18 Jan 20:27:18 20:35:59 79° 277° (W) 20:44:47
PRISM 18 Jan 20:31:23 20:33:42 15° 93° (E) 20:36:00 437.425
DELFI C3 18 Jan 20:35:27 20:39:06 35° 72° (ENE) 20:42:46 145.870
AAUSAT CUBESAT 2 18 Jan 20:37:22 20:40:44 23° 265° (W) 20:44:06 437.432
Cosmos 2499 18 Jan 20:37:39 20:45:56 53° 281° (W) 20:53:42 435.465 / 435.565
UWE-3 18 Jan 20:54:37 20:57:41 20° 265° (W) 21:00:46 435.000/436.395/437.385
FUNcube-1 18 Jan 20:54:42 20:58:30 36° 262° (W) 21:02:21 145.935
ZACube-1 18 Jan 21:17:46 21:20:41 19° 266° (W) 21:23:36 437.345
HUMSAT D 18 Jan 21:43:27 21:47:30 64° 260° (W) 21:51:36 437.325/437.525
UNISAT 6 18 Jan 21:55:08 21:59:22 43° 99° (E) 22:03:41 437.425
ISS 18 Jan 21:56:44 21:59:32 27° 133° (SE) 22:02:20 145.825
PRISM 18 Jan 22:05:18 22:09:08 38° 288° (WNW) 22:12:55 437.425
ESTCUBE 1 18 Jan 22:06:31 22:10:22 28° 69° (ENE) 22:14:14 437.505/2401.250
BY70-1 18 Jan 22:08:12 22:11:02 51° 74° (ENE) 22:14:06 436.1900
TIGRISAT 18 Jan 22:08:58 22:13:20 57° 101° (E) 22:17:47 435.000
DELFI C3 18 Jan 22:11:35 22:14:00 15° 267° (W) 22:16:25 145.870
JAS-2 18 Jan 22:19:17 22:25:45 34° 96° (E) 22:32:35 435.910
RS-15 18 Jan 22:20:26 22:29:54 30° 102° (ESE) 22:39:40 29.354- 29.394
ANTELSAT 18 Jan 22:23:41 22:28:08 90° 285° (WNW) 22:32:40 437.575/2403.000
VELOX 1 18 Jan 22:26:46 22:29:37 17° 66° (ENE) 22:32:29 145.980
AO-85 18 Jan 22:28:15 22:31:18 21° 50° (NE) 22:34:20 145.980
GONETS M04 18 Jan 22:30:06 22:34:19 14° 298° (WNW) 22:38:35
DUCHIFAT 1 18 Jan 22:51:02 22:52:46 12° 92° (E) 22:54:28 145.980
NANOSAT C BR1 18 Jan 22:54:55 22:57:26 15° 93° (E) 22:59:56 145.865
DX 1 18 Jan 23:04:20 23:07:35 21° 67° (ENE) 23:10:50 434.975-435.025
UKube-1 18 Jan 23:07:39 23:10:19 16° 66° (ENE) 23:12:59 .
SPROUT 18 Jan 23:07:41 23:11:28 32° 71° (ENE) 23:15:16 437.525
CUBEBUG 1 18 Jan 23:15:59 23:20:25 84° 260° (W) 23:24:50 437.445
50 SAT 18 Jan 23:18:12 23:21:34 41° 74° (ENE) 23:24:59 437.505
AISAT 18 Jan 23:27:42 23:32:09 85° 77° (ENE) 23:36:37 437.250
BUGSAT 1 18 Jan 23:32:52 23:34:30 12° 92° (E) 23:36:09 437.445
UNISAT 6 18 Jan 23:32:58 23:35:44 16° 293° (WNW) 23:38:32 437.425
ISS 18 Jan 23:33:04 23:35:57 29° 328° (NNW) 23:38:51 145.825
ESTCUBE 1 18 Jan 23:43:23 23:47:05 25° 265° (W) 23:50:50 437.505/2401.250
QB50P1 18 Jan 23:44:44 23:48:57 67° 102° (ESE) 23:53:07 145.935-145.965
TIGRISAT 18 Jan 23:47:38 23:49:32 13° 295° (WNW) 23:51:27 435.000
PCSat 18 Jan 23:48:10 23:51:45 18° 105° (ESE) 23:55:21 145.827
POLYITAN 1 18 Jan 23:48:18 23:52:33 75° 103° (ESE) 23:56:46 437.675
QB50P2 18 Jan 23:49:29 23:53:43 83° 101° (E) 23:57:58 145.880/145.840
YUBILEINY 18 Jan 23:58:22 00:04:07 19° 65° (ENE) 00:09:49 435.215
VELOX 1 19 Jan 00:01:31 00:05:43 41° 261° (W) 00:09:57 145.980
JAS-2 19 Jan 00:03:59 00:10:45 47° 290° (WNW) 00:18:03 435.910
AO-85 19 Jan 00:08:19 00:11:41 28° 246° (WSW) 00:15:03 145.980
POPSAT HIP 1 19 Jan 00:11:33 00:15:41 59° 286° (WNW) 00:19:51 437.405
DUCHIFAT 1 19 Jan 00:24:38 00:28:40 48° 286° (WNW) 00:32:42 145.980
AIST 1 19 Jan 00:27:27 00:30:35 20° 74° (ENE) 00:33:41
RS-15 19 Jan 00:29:21 00:41:11 74° 303° (WNW) 00:53:35 29.354- 29.394
NANOSAT C BR1 19 Jan 00:29:22 00:33:17 38° 288° (WNW) 00:37:11 145.865
SWISSCUBE 19 Jan 00:37:15 00:38:41 11° 62° (ENE) 00:40:06 437.505
Oscar 19 19 Jan 00:38:27 00:42:13 20° 94° (E) 00:45:56 437.125/150
DX 1 19 Jan 00:39:37 00:43:32 32° 262° (W) 00:47:28 434.975-435.025
TISAT 1 19 Jan 00:41:22 00:45:26 52° 74° (ENE) 00:49:30 437.305
Gurwin Techsat 1B 19 Jan 00:41:48 00:42:21 10° 89° (E) 00:42:53 435.225
UKube-1 19 Jan 00:41:55 00:45:59 41° 261° (W) 00:50:06 .
SPROUT 19 Jan 00:44:25 00:47:26 19° 266° (W) 00:50:28 437.525
BEESAT 3 19 Jan 00:44:59 00:47:52 19° 49° (NE) 00:50:45 437.485
Cosmos 2491 19 Jan 00:45:50 00:51:23 19° 79° (E) 00:56:56 435.465 / 435.565
BUGSAT 1 19 Jan 01:06:14 01:10:04 44° 287° (WNW) 01:13:55 437.445
BEESAT 2 19 Jan 01:25:50 01:29:02 22° 50° (NE) 01:32:12 435.950
